Wind_Speed
22 22 22 22 22 21 22 23 24 25 24 25 24 23 23 22 22 23 24 27 28 29 29 28 27 26 25 22 19 15 10 7 6 6 6 7 8 9 9 10 10 11 11 12 12 12 12 12 12 12 11 11 10 10 10 10 10 10 11 11 12 13 14 14 15 16 16 16 16 17 18 19 20 21 22 22 21 21 21 23 25 26 27 27 27
23 22 22 22 22 21 22 24 24 25 25 25 25 24 24 24 23 24 26 27 27 28 28 29 31 30 29 27 24 20 16 12 9 7 6 7 8 9 10 11 11 11 11 11 11 11 12 12 12 12 12 11 11 11 10 10 10 10 11 12 13 14 15 16 16 16 17 17 17 18 18 19 20 22 22 22 22 22 23 25 26 27 27 28 29
24 23 23 23 23 22 23 23 24 25 25 25 26 27 26 26 26 26 26 27 26 27 28 30 32 32 31 30 28 26 23 19 15 11 9 8 8 9 10 11 12 12 11 11 10 11 11 12 12 12 11 11 11 10 10 10 10 11 12 14 15 16 16 17 17 17 17 17 17 17 18 19 20 22 23 23 22 22 24 25 26 28 28 29 30
24 24 24 24 24 24 24 24 24 24 25 25 26 27 27 27 28 27 27 26 26 28 29 30 30 31 32 32 32 31 29 25 21 17 14 12 11 11 11 12 13 12 12 11 10 10 10 10 11 11 10 10 10 10 10 10 11 13 15 16 17 17 17 17 17 17 17 17 17 18 19 19 20 22 23 22 22 22 24 24 25 27 28 29 31
25 24 25 25 24 25 25 25 24 24 24 25 26 26 27 27 28 28 28 27 26 27 30 31 30 31 32 32 33 34 33 30 27 24 21 18 16 14 14 14 13 13 12 11 10 9 9 9 10 10 10 10 11 11 12 13 15 16 17 17 17 17 16 16 16 17 17 17 18 18 19 20 20 21 23 22 22 22 22 23 24 26 27 30 33
24 25 26 26 25 26 26 26 25 25 25 25 26 27 27 27 27 28 29 29 27 27 29 31 31 32 33 33 33 34 33 33 31 29 26 23 21 19 18 16 15 14 13 12 11 11 11 12 12 13 13 14 14 14 15 16 17 17 17 17 16 16 16 17 17 17 18 18 18 19 19 19 20 21 23 23 21 21 21 21 23 25 27 31 34
24 24 25 26 25 26 27 27 28 27 27 26 27 27 28 28 28 29 30 31 31 31 31 31 32 33 33 34 34 33 33 33 33 32 30 28 26 24 22 20 18 17 16 16 16 17 17 17 17 17 17 17 17 17 18 18 18 17 17 17 16 17 17 17 18 18 18 18 19 19 20 20 20 22 24 23 21 20 20 20 22 25 28 32 35
24 24 25 25 26 26 27 29 29 28 28 27 27 27 27 28 28 29 29 30 31 32 32 32 32 33 33 34 34 34 34 34 33 32 32 31 29 28 27 25 24 23 22 22 22 21 21 21 20 20 19 19 19 19 19 18 18 17 17 17 17 18 18 18 18 19 19 19 20 20 21 21 21 21 23 24 22 20 19 20 21 24 28 32 35
24 25 25 25 26 27 27 28 28 28 28 28 27 27 26 27 27 27 28 28 29 30 31 31 32 32 32 33 33 34 34 34 34 33 32 32 31 30 29 28 27 26 26 25 24 23 23 22 22 21 21 20 20 19 19 18 18 18 18 18 19 19 19 19 19 19 19 20 20 21 21 21 21 21 22 24 23 20 19 20 21 24 28 32 35
23 24 24 24 25 26 26 27 27 27 27 28 27 27 27 27 27 27 28 28 28 29 29 29 31 32 32 32 32 33 33 33 34 33 32 32 31 30 30 30 28 28 27 26 25 25 25 24 23 22 21 21 20 19 19 20 20 20 20 20 20 20 20 20 19 19 19 20 21 21 22 22 21 21 21 23 24 23 20 20 21 24 28 33 35
22 23 23 24 24 24 25 25 26 26 26 27 27 28 28 28 29 29 29 29 30 29 28 28 29 30 31 32 32 33 33 33 33 32 32 31 31 30 30 30 29 28 28 27 26 25 25 24 23 22 22 21 21 21 22 22 22 22 22 21 21 21 21 20 20 20 20 20 21 21 22 22 21 21 21 22 24 25 22 21 22 24 29 32 35
21 22 23 23 23 23 23 24 24 25 25 26 27 28 28 29 30 30 30 30 30 30 30 29 29 29 31 32 33 33 33 33 33 32 31 31 31 30 30 30 29 28 27 26 26 26 25 25 24 23 22 23 23 23 23 23 23 23 23 22 22 22 21 21 20 20 21 21 22 22 22 22 22 22 21 22 24 26 24 22 22 25 29 32 34
20 21 22 22 22 21 22 22 23 24 24 25 25 26 27 27 28 29 29 30 30 30 30 30 30 30 31 31 32 32 33 33 33 33 32 31 31 31 30 30 29 29 28 27 27 27 26 26 25 24 23 24 24 23 23 23 23 23 23 22 22 22 22 22 21 21 22 22 22 22 23 23 24 23 22 22 24 25 25 23 23 25 29 31 34
19 20 20 20 20 20 20 21 21 22 22 23 23 24 25 25 26 26 27 28 29 29 29 30 30 30 30 30 31 31 31 32 32 32 32 31 31 31 30 30 30 29 28 27 27 27 26 26 25 24 24 24 24 23 23 22 22 22 22 22 22 22 22 22 22 22 22 22 22 23 24 24 24 24 23 23 24 25 25 23 24 26 28 31 34
17 18 19 19 19 19 19 19 19 20 20 21 21 22 22 22 23 23 24 25 26 27 27 28 28 28 29 29 29 29 30 30 30 30 30 30 29 29 29 28 28 28 27 27 26 26 25 25 25 24 25 25 23 23 23 22 22 23 22 22 22 21 21 22 22 22 21 22 23 24 24 24 25 24 24 23 24 25 25 24 24 25 27 31 34
15 16 17 17 18 18 18 18 18 18 19 19 19 19 20 20 20 20 21 22 23 24 24 25 25 26 27 27 28 28 28 28 28 28 28 28 27 27 27 26 26 26 26 25 25 25 24 24 24 24 24 23 22 22 22 22 22 22 22 22 22 21 21 21 22 22 21 21 23 25 25 24 25 24 24 23 24 24 24 23 24 25 28 32 34
13 14 14 15 15 16 16 16 17 17 17 17 18 18 18 18 18 18 19 19 20 21 21 22 22 23 24 25 25 25 26 26 26 26 26 26 26 26 26 25 25 24 24 24 23 23 23 23 23 23 22 22 22 22 22 22 22 22 22 22 22 21 21 21 22 22 21 21 22 25 25 24 24 24 24 23 23 23 23 22 23 25 28 32 34
11 12 12 13 13 14 14 15 15 16 16 16 17 17 17 17 17 17 17 17 18 18 19 19 19 20 20 22 22 23 23 23 24 24 24 24 24 25 25 24 23 23 23 22 22 22 23 23 23 23 22 22 22 22 21 21 21 21 21 22 22 21 21 21 22 22 21 20 22 25 25 24 24 23 23 23 23 23 22 22 23 25 29 32 34
11 10 10 11 12 12 13 14 14 15 15 15 16 16 16 16 16 16 16 16 16 17 17 17 17 17 18 19 19 20 21 21 21 22 22 22 23 23 23 23 22 21 21 21 21 21 22 22 22 23 22 22 22 21 21 20 20 21 21 21 21 21 21 21 22 23 22 21 23 25 25 23 23 23 23 23 23 22 21 22 23 26 29 32 34
11 10 10 10 10 11 11 12 13 14 14 15 16 16 15 15 15 15 15 15 15 15 15 15 15 16 16 17 17 18 19 19 20 20 21 21 21 22 22 22 21 21 20 20 21 21 21 21 22 22 22 22 22 22 21 20 20 21 21 21 21 21 21 22 22 23 22 21 24 25 24 22 22 22 23 23 23 23 22 23 24 26 29 32 34
10 10 10 9 10 10 11 11 13 14 15 16 16 16 15 15 15 15 15 15 14 14 14 14 14 15 15 15 16 16 17 17 18 19 19 19 19 20 21 21 21 21 20 20 20 21 21 21 21 22 22 23 23 23 22 22 21 22 22 21 21 21 22 22 22 23 22 22 24 25 23 22 21 22 23 24 23 23 24 25 25 27 30 32 33
9 9 9 9 9 10 10 11 13 14 15 16 16 16 16 15 15 15 15 15 15 14 14 14 14 15 15 15 15 15 16 16 17 18 18 18 19 19 20 20 20 20 20 20 20 21 21 20 21 21 22 23 24 24 23 22 22 23 23 22 21 21 22 22 22 22 22 23 24 24 23 21 21 22 23 24 24 24 25 26 26 27 29 31 32
8 8 9 9 9 9 10 11 12 13 14 15 16 15 16 16 16 16 15 15 15 15 15 15 15 15 15 15 15 15 15 16 16 17 17 17 18 19 19 19 20 20 20 20 19 20 21 20 21 21 21 22 23 23 23 23 23 23 24 23 22 22 23 22 22 22 22 23 24 23 22 20 20 22 24 25 25 26 27 27 27 28 29 31 32
6 7 8 8 8 9 9 10 11 11 12 14 15 16 17 17 16 16 15 15 15 15 15 15 16 16 16 16 16 16 16 16 16 16 16 16 17 18 18 18 19 19 19 19 18 18 19 20 20 20 20 21 22 22 22 22 22 23 24 24 22 22 23 23 23 23 23 23 23 22 21 20 20 22 24 25 26 27 27 28 27 28 29 30 32
5 6 6 6 7 8 8 9 9 10 11 13 15 16 17 17 17 16 15 15 15 15 15 16 16 16 16 16 16 16 16 16 16 16 16 16 17 17 18 18 19 19 19 19 19 18 18 18 19 19 19 20 20 21 21 21 21 22 24 23 23 23 24 23 23 23 23 23 22 21 20 20 20 22 24 25 27 27 28 28 28 28 29 30 31
5 5 5 5 6 7 7 8 8 9 10 11 14 15 16 16 17 16 15 15 15 15 15 15 16 16 16 16 16 16 17 17 16 16 16 16 16 17 18 19 19 19 19 18 19 18 17 18 18 18 18 18 18 19 19 20 21 22 23 23 22 23 23 23 23 23 23 23 22 21 21 20 21 22 24 25 27 28 29 29 29 29 29 30 30
4 4 4 4 5 6 6 7 7 8 9 10 12 14 15 15 16 16 15 15 15 15 15 15 16 16 16 16 16 16 16 16 16 16 16 16 16 17 18 18 19 19 19 19 19 18 18 18 18 19 19 17 16 17 18 19 20 20 22 22 22 23 23 23 22 23 23 23 22 21 21 21 21 22 23 25 27 29 29 29 30 29 29 29 29
4 4 3 3 3 4 5 5 6 7 8 10 11 12 13 14 15 15 15 15 14 14 14 14 15 15 15 16 16 16 16 16 16 15 15 15 16 16 17 18 18 18 19 19 18 18 18 19 18 18 18 16 14 15 18 19 19 19 20 21 21 22 23 22 22 23 23 23 23 22 21 21 21 21 22 24 27 29 30 30 30 29 29 29 29
4 4 3 2 2 2 3 4 5 6 7 8 10 11 12 13 14 14 14 14 14 14 14 14 15 15 15 15 15 15 15 15 15 15 15 15 15 15 16 16 17 17 18 18 17 17 17 17 17 17 17 16 14 15 18 18 18 19 20 20 20 21 22 22 22 23 23 24 23 23 22 22 21 21 21 24 26 29 31 31 30 29 29 29 28
5 4 4 3 2 1 2 2 3 4 6 7 8 9 11 12 13 14 15 15 15 15 14 15 15 14 14 15 15 15 15 15 15 15 15 15 15 15 15 15 16 16 16 16 15 15 15 15 15 15 15 14 14 16 17 18 18 19 19 19 19 21 21 22 22 23 23 23 24 24 24 23 22 21 21 22 25 29 32 32 31 30 29 28 28
6 6 5 4 3 2 1 0 1 2 3 4 6 7 9 10 12 13 14 15 15 15 15 15 15 15 15 15 15 15 15 15 15 15 15 15 15 15 15 15 15 15 15 15 14 13 13 13 13 13 13 13 14 15 16 17 17 18 18 18 19 20 21 21 22 22 23 23 23 24 24 25 24 23 22 22 23 27 31 34 33 31 30 28 27
8 7 6 5 4 3 2 2 1 0 1 2 4 5 7 9 10 12 13 14 15 15 15 15 15 15 15 15 15 15 15 15 15 16 16 16 16 16 16 16 16 16 15 15 14 13 12 11 11 11 12 12 13 14 15 15 15 16 17 18 18 19 20 21 21 22 23 24 23 23 23 25 25 25 24 23 23 25 28 33 35 33 31 29 26
10 9 8 7 6 5 4 3 3 2 2 2 3 4 5 7 9 10 11 12 13 14 15 15 15 15 15 16 16 16 16 16 16 16 17 17 17 17 17 17 17 17 16 15 14 13 12 11 11 11 11 11 12 13 14 14 14 14 15 17 18 19 20 20 20 21 22 23 24 23 22 23 24 25 26 26 26 25 26 30 34 34 31 29 26
13 12 11 9 7 6 5 5 4 4 4 4 4 4 5 6 8 9 10 11 12 13 14 14 14 15 15 15 15 16 16 16 16 17 17 17 18 18 18 19 19 18 17 16 15 14 13 12 11 11 11 11 12 12 13 13 12 13 14 16 17 18 19 20 20 21 21 22 23 23 22 22 23 25 26 26 27 26 26 28 32 32 30 28 25
16 15 14 12 10 8 7 6 6 6 6 6 6 6 6 7 7 9 10 10 11 12 13 14 14 14 14 15 15 15 15 16 16 17 17 17 18 18 19 19 19 19 18 17 16 15 14 13 12 12 12 12 12 13 13 12 12 12 13 15 17 18 19 19 20 21 22 22 22 22 22 22 22 23 24 25 25 25 25 27 29 29 28 26 24
20 19 17 15 13 12 10 9 9 8 8 9 8 8 8 8 9 9 10 11 11 12 13 13 14 14 14 14 14 14 15 15 16 16 17 17 18 18 19 19 19 19 18 18 17 16 15 14 13 12 12 12 13 13 14 13 13 13 14 16 17 18 18 19 20 21 22 23 22 22 22 21 21 21 22 23 23 24 25 26 27 28 27 27 27
23 22 21 19 17 15 14 13 12 11 11 11 11 11 11 11 11 11 12 12 12 12 13 13 13 13 13 13 14 14 14 15 15 16 16 17 17 18 18 18 18 18 18 18 18 17 16 15 14 13 13 13 14 15 14 14 14 15 16 18 18 19 19 20 21 23 23 24 23 22 21 21 20 21 21 23 24 25 27 28 29 29 30 31 32
25 25 24 22 21 20 18 17 16 15 15 15 14 14 14 14 14 14 14 14 14 13 13 13 14 13 13 13 13 14 14 14 14 15 16 16 16 16 17 16 17 17 17 17 17 17 17 16 15 14 14 15 15 16 16 15 15 17 18 19 20 20 21 22 24 25 25 24 23 22 21 21 21 22 24 26 28 30 31 33 33 34 34 35 37
26 27 27 26 25 24 23 22 21 20 19 18 17 16 16 16 17 17 17 16 16 15 14 14 14 14 13 12 12 13 13 13 13 14 14 14 14 15 15 15 15 16 16 16 16 17 17 16 15 14 14 15 16 16 17 16 16 17 18 19 20 21 23 24 26 27 26 24 23 23 24 25 26 27 29 31 32 34 36 37 38 38 38 39 40
25 26 28 29 29 28 28 26 25 25 24 22 20 19 18 18 18 19 19 18 17 16 15 15 14 14 13 12 11 12 12 12 12 12 13 12 13 13 14 14 14 14 15 16 16 16 16 15 14 14 13 14 15 16 17 17 17 17 18 19 20 22 24 26 28 28 27 27 28 29 29 30 31 31 32 33 35 37 38 40 41 41 41 41 41
25 26 27 29 30 31 31 30 29 28 27 25 23 22 20 20 19 20 20 19 17 17 16 15 14 14 12 11 11 11 11 11 11 11 11 11 11 11 12 12 13 13 14 15 15 15 15 15 13 12 12 12 13 14 16 17 18 18 18 18 20 22 24 26 28 29 29 30 31 32 33 33 33 33 34 35 36 38 39 40 40 40 39 39 39
26 26 27 28 29 30 31 31 30 30 28 27 26 25 23 22 21 21 20 19 18 18 17 15 15 14 12 11 10 10 10 10 9 9 9 9 9 10 10 11 11 12 13 14 14 14 14 13 12 12 11 12 12 13 15 17 18 18 18 18 20 22 24 26 27 29 30 30 31 32 32 32 33 33 34 35 36 36 36 36 36 35 35 35 35
29 28 27 27 28 29 31 31 31 30 29 29 28 28 26 25 24 23 22 20 19 18 17 16 15 14 12 10 9 9 9 9 9 9 8 8 8 8 8 8 10 11 12 12 13 12 12 12 11 11 11 12 13 14 15 16 17 17 18 19 20 22 23 25 26 27 28 29 29 30 30 31 31 31 32 32 32 31 31 30 30 30 30 30 30
32 30 28 27 27 28 29 30 30 30 30 29 30 30 29 28 27 25 24 22 20 19 17 16 14 13 12 11 9 9 9 9 9 8 7 7 6 6 6 6 7 8 9 10 10 10 10 9 9 10 11 11 13 14 15 16 17 17 18 20 21 22 23 24 25 25 26 27 27 27 27 28 28 28 27 27 26 25 25 24 24 24 24 24 24
33 31 29 27 28 28 27 28 29 29 29 29 29 30 30 29 28 27 26 24 21 20 18 16 14 13 12 11 10 9 9 9 9 8 7 6 5 4 3 3 4 5 5 6 7 7 7 7 8 9 10 11 12 14 14 15 16 17 18 19 21 21 22 23 24 24 25 25 24 24 24 24 23 23 22 21 20 20 19 18 18 18 18 18 19
34 33 31 29 29 29 28 27 28 29 29 28 28 29 29 28 28 27 26 25 23 21 19 17 14 13 12 12 11 10 9 10 9 9 8 6 4 2 1 1 1 2 2 3 4 5 5 6 7 8 9 10 11 12 13 13 14 15 16 18 19 19 20 21 22 22 22 22 21 20 20 20 19 19 18 17 16 14 14 13 13 13 13 14 14
37 35 33 31 31 31 30 28 28 28 28 27 27 27 27 27 27 27 27 25 24 22 20 18 16 14 13 12 11 10 11 11 10 10 9 7 4 2 2 2 2 2 2 1 1 2 3 3 4 5 7 7 8 9 10 11 12 13 14 15 16 17 17 18 19 19 18 18 17 16 16 15 15 14 13 12 11 10 9 8 8 8 9 9 10
38 37 36 34 33 33 32 32 31 29 27 25 24 23 23 25 26 27 27 25 24 23 22 20 18 16 14 13 13 12 12 12 11 11 11 8 6 4 4 4 4 4 4 3 2 1 1 1 1 2 3 4 5 6 8 9 10 12 12 13 13 13 13 13 14 14 14 13 13 12 11 11 10 10 9 8 7 6 5 3 3 4 4 6 7
39 38 37 36 35 35 35 36 35 32 29 26 23 22 22 23 26 28 28 26 24 23 22 21 20 18 16 15 15 14 14 13 12 13 13 11 8 7 7 7 7 7 6 5 4 3 2 2 2 2 2 2 3 5 6 7 8 9 10 10 9 9 9 10 10 10 10 10 10 9 8 8 7 7 6 6 5 4 3 3 3 4 5 6 8
42 41 41 39 38 38 39 39 39 37 34 30 27 28 27 26 26 27 27 25 23 22 21 21 20 20 18 17 17 16 15 14 14 15 15 13 10 9 10 10 9 9 8 7 5 4 4 4 4 4 4 4 5 5 6 6 6 6 7 7 7 7 7 8 8 8 8 8 9 9 9 9 8 8 8 7 6 6 7 7 8 9 10 11 12
47 45 45 44 42 42 43 44 43 40 38 37 37 36 34 30 27 26 25 24 22 20 18 18 18 19 19 18 17 17 16 15 15 17 18 16 13 12 12 13 12 11 10 8 8 6 6 6 6 6 7 7 7 7 7 7 7 7 8 8 8 8 8 8 8 9 10 10 11 12 13 13 13 12 12 12 11 11 12 12 13 14 15 15 16
Wind_Direction
55 54 51 48 46 43 40 43 46 46 48 47 48 51 50 51 54 55 56 55 53 53 55 57 59 60 61 62 64 68 78 95 118 134 143 145 142 137 130 125 119 113 109 106 106 105 104 101 99 97 93 89 84 77 73 67 63 54 45 41 41 45 50 54 55 52 46 41 36 32 27 23 19 16 14 13 11 13 17 19 20 20 18 16 11
53 54 52 48 45 46 46 50 52 50 52 52 52 55 55 57 59 59 60 58 56 57 58 58 59 61 61 61 64 66 70 78 93 115 136 150 152 149 142 136 131 123 118 115 111 106 104 101 98 95 91 86 81 76 72 64 55 46 44 47 52 57 60 58 53 47 42 37 33 28 23 21 18 15 14 15 15 17 20 22 22 21 19 15 10
55 56 55 53 51 51 51 54 57 56 56 56 57 59 61 63 62 60 62 62 60 60 60 58 58 59 60 60 62 64 66 70 77 89 107 127 141 145 141 136 133 129 124 119 113 108 105 101 98 93 87 83 79 73 65 56 50 50 55 60 63 63 59 54 49 44 39 34 30 25 22 20 17 16 16 17 19 20 22 23 22 21 18 14 8
58 58 59 60 58 56 55 57 60 59 56 57 59 60 63 65 63 63 64 64 64 64 62 59 57 58 59 60 60 62 63 66 71 77 86 99 114 125 129 130 130 129 125 121 116 110 104 99 95 89 84 79 72 66 60 58 60 64 67 67 65 61 56 51 47 41 36 32 28 24 21 19 17 17 17 18 21 22 23 23 22 21 17 12 7
59 59 61 64 63 60 59 59 59 58 57 58 60 61 63 65 66 66 65 65 67 66 63 59 59 60 61 61 61 61 62 63 67 72 77 85 94 104 112 118 122 124 122 119 114 106 100 94 89 84 80 75 71 70 70 71 72 72 71 67 63 58 53 48 43 38 34 30 26 23 20 18 17 18 19 20 21 21 23 23 21 19 14 9 6
60 61 63 65 65 64 63 61 60 59 58 60 62 63 64 66 68 67 66 66 66 66 64 62 62 63 63 63 63 63 63 64 66 69 74 79 87 94 101 108 112 114 113 108 102 97 92 89 86 83 81 80 80 80 79 77 75 73 68 63 59 54 49 44 40 36 32 29 25 22 20 19 18 18 20 20 19 19 21 21 19 15 10 7 5
62 64 65 66 67 67 67 65 63 62 61 62 63 64 66 68 70 69 67 67 68 68 67 66 65 64 65 65 66 66 66 67 67 69 72 76 81 87 92 98 100 100 99 96 93 92 90 88 87 86 86 86 85 82 80 76 72 68 63 59 54 50 46 42 38 35 32 28 25 22 20 19 18 18 19 18 16 16 17 17 15 12 7 5 5
64 64 65 66 67 68 69 68 66 65 63 63 63 64 66 68 70 70 69 69 70 69 67 66 65 65 65 66 66 67 67 68 68 70 72 75 79 82 86 89 91 92 92 91 91 91 90 89 89 88 87 85 82 78 75 72 67 63 59 55 51 47 44 40 37 34 31 28 25 22 20 19 19 17 17 17 14 11 12 12 9 9 5 4 5
64 64 64 65 66 67 68 69 68 67 65 64 62 62 62 64 66 68 69 69 68 67 66 64 63 64 65 65 65 67 68 69 70 70 72 75 77 80 83 85 87 88 88 88 88 88 88 87 86 85 82 79 76 73 71 68 64 59 55 51 47 43 41 37 34 31 28 26 25 23 20 19 18 16 16 16 13 8 8 7 5 5 4 4 4
64 65 65 65 66 67 68 69 69 67 66 65 63 61 60 60 61 63 65 65 64 65 66 64 63 63 63 63 64 66 68 70 71 71 72 74 76 78 80 82 83 84 84 85 84 84 84 83 80 78 76 74 72 70 68 64 60 55 51 47 43 40 37 34 31 28 26 25 24 23 21 19 18 16 16 16 14 11 6 4 3 4 4 5 4
66 66 66 65 66 68 69 68 68 67 67 65 64 63 61 60 60 61 62 63 64 64 65 65 64 61 61 63 65 66 67 69 70 72 73 75 76 77 79 80 81 82 83 83 82 81 80 79 76 74 73 72 70 67 63 60 56 53 49 45 41 38 35 33 30 26 24 24 24 23 21 20 18 16 17 17 15 13 10 6 3 4 6 5 3
66 68 68 67 68 68 69 68 68 67 67 66 65 65 63 62 61 61 61 63 64 64 65 65 64 62 61 63 65 66 67 68 69 71 72 74 75 76 78 79 80 80 80 80 79 78 76 75 74 72 70 68 65 62 60 57 54 51 47 44 40 37 35 33 30 28 26 26 25 24 22 21 20 18 18 18 15 14 14 11 8 8 8 6 4
65 68 68 68 68 68 68 68 68 68 67 66 65 65 65 63 63 63 63 63 64 64 65 65 64 63 63 63 64 65 66 67 69 70 70 70 72 73 74 76 76 76 75 75 75 74 72 72 70 67 65 63 61 58 56 54 52 50 47 43 40 37 35 33 31 30 28 28 26 25 24 22 21 21 20 20 17 14 16 17 15 13 10 6 6
63 65 66 66 66 66 66 66 66 67 67 66 65 65 64 64 64 64 63 63 64 64 64 65 64 64 63 63 63 64 65 66 67 68 69 68 68 69 69 70 72 72 71 70 71 71 69 67 66 62 60 58 56 54 53 51 49 48 46 43 40 36 34 33 31 30 29 29 28 26 25 24 24 23 23 22 18 17 20 23 22 18 12 9 10
59 62 64 65 65 64 64 63 63 64 64 63 63 63 63 63 62 62 62 63 64 64 64 63 63 63 63 62 61 61 63 64 64 64 66 67 66 66 66 65 67 69 68 67 67 67 66 64 63 60 57 55 53 51 50 48 47 46 44 42 38 36 34 32 31 30 30 30 29 28 25 25 25 25 26 24 19 21 26 30 27 20 15 14 13
59 60 61 63 63 64 63 62 61 62 61 61 61 61 61 61 59 59 60 60 61 63 63 63 62 62 62 61 60 59 59 61 62 61 61 63 64 65 65 63 63 65 66 65 64 64 63 62 60 58 56 54 52 50 48 47 45 44 42 40 37 35 33 32 31 30 30 31 30 28 25 25 26 28 29 25 22 28 34 34 30 23 19 18 16
59 58 59 59 59 61 61 60 58 59 58 57 57 57 57 58 58 56 56 57 58 59 60 60 60 60 60 60 59 58 57 57 58 59 58 59 60 61 62 61 59 60 62 62 62 61 60 59 57 56 54 52 50 48 46 44 44 43 41 39 36 34 32 32 32 31 31 32 31 28 25 25 27 31 31 26 26 34 38 36 32 26 23 22 19
61 57 56 56 55 54 52 52 53 54 53 53 53 52 52 54 56 55 53 54 55 56 57 57 57 57 58 58 57 56 55 53 53 54 54 55 57 58 58 59 57 56 57 58 59 59 58 57 55 54 52 50 47 45 44 43 42 41 39 38 36 33 31 31 32 32 32 33 32 28 26 26 29 33 33 28 30 36 38 36 33 29 26 25 22
62 57 52 49 50 49 44 43 45 47 47 49 50 48 48 49 50 51 51 50 51 52 53 53 53 53 53 54 54 53 51 50 50 50 50 50 53 56 58 57 56 55 54 54 54 54 55 55 53 52 50 48 46 44 43 42 40 38 37 36 35 33 31 31 33 33 34 35 32 28 28 29 32 36 35 32 33 35 36 36 34 31 29 27 25
62 59 52 46 46 46 43 41 42 42 42 45 47 46 46 46 45 46 46 45 46 47 47 47 47 47 47 48 49 48 47 46 46 47 47 46 48 52 54 55 54 52 52 53 52 51 51 51 51 50 48 47 45 43 42 41 38 36 36 36 35 34 32 32 34 35 36 36 33 30 31 33 36 39 38 35 34 35 34 34 35 34 31 29 27
62 61 55 48 44 44 43 41 41 41 41 43 44 43 44 44 43 43 42 40 40 42 42 40 40 41 41 41 42 43 42 42 43 44 45 45 46 48 49 51 50 49 49 50 51 49 47 47 48 47 47 46 44 42 41 41 40 39 37 36 37 36 35 36 37 36 37 37 33 32 35 38 40 40 38 36 35 36 34 34 36 36 33 31 29
62 61 57 51 45 43 43 42 41 41 41 41 41 41 41 41 41 41 39 37 35 36 36 35 35 35 37 37 37 38 39 39 41 43 43 43 45 46 46 47 46 46 46 46 47 46 43 42 44 45 45 46 44 42 42 43 44 42 38 38 39 39 39 40 40 39 38 36 34 36 39 43 42 40 37 36 36 38 37 36 38 37 34 32 31
65 63 58 54 47 42 41 40 40 40 38 38 38 38 38 38 38 38 36 33 32 31 31 31 31 32 34 35 34 35 37 38 39 41 42 42 43 44 44 44 43 42 41 41 43 44 41 39 41 42 44 46 44 42 44 45 44 42 39 39 40 40 41 43 43 40 38 36 37 41 44 46 43 39 38 37 38 39 40 40 39 38 35 33 32
73 67 62 57 50 44 40 38 38 38 35 36 35 36 36 35 35 35 33 31 29 29 28 28 28 28 30 31 31 32 33 35 36 38 40 39 40 41 41 41 42 42 39 37 40 44 42 39 40 40 41 44 44 43 43 43 42 40 38 39 41 41 43 45 46 43 39 38 40 45 49 48 43 40 39 39 39 40 41 40 40 39 37 34 34
87 80 71 64 57 49 42 38 37 36 34 33 34 37 38 36 34 34 34 32 30 29 28 27 25 26 27 28 28 28 29 30 32 33 35 36 37 37 37 37 38 40 38 35 36 40 39 38 40 39 39 42 44 44 41 38 37 36 37 39 42 42 45 47 47 45 42 40 42 47 51 49 45 43 41 39 39 40 40 40 40 39 38 36 35
106 97 85 76 67 58 51 43 39 36 34 32 33 36 37 36 36 35 35 35 34 31 29 27 26 26 25 26 26 26 27 27 28 29 30 31 33 34 33 33 33 34 35 34 35 35 35 37 39 39 39 41 45 43 38 34 32 32 35 40 42 44 47 49 49 47 45 44 45 49 51 50 48 46 42 39 38 38 38 38 39 39 40 39 38
123 114 104 90 79 69 61 53 46 40 36 33 33 34 34 34 36 36 35 36 35 34 30 29 30 28 26 26 26 26 26 25 26 27 28 29 30 32 32 33 34 33 33 34 35 35 35 37 40 41 40 41 45 41 33 30 29 29 34 40 44 47 49 51 51 49 47 47 48 50 51 50 50 48 45 40 37 36 37 37 38 39 40 41 40
138 125 117 107 92 80 70 61 52 46 39 35 33 32 31 31 32 32 32 33 34 33 31 30 32 30 28 28 27 26 26 24 25 26 27 29 30 32 33 35 36 36 35 35 35 36 36 37 40 42 41 42 44 35 27 27 29 29 33 40 45 49 52 54 54 52 50 50 50 50 50 50 50 49 46 42 38 37 37 37 37 39 41 42 41
160 145 136 127 111 89 76 63 54 49 42 36 32 31 30 28 28 27 26 27 29 31 29 28 29 29 27 28 27 26 25 23 24 24 25 28 30 31 34 35 36 35 34 34 34 34 35 36 38 40 41 41 38 27 22 25 29 30 34 41 47 52 55 57 57 55 53 53 52 51 50 49 48 48 46 43 40 38 38 37 37 38 41 42 41
191 178 166 153 146 126 84 64 50 46 43 35 29 28 27 25 25 23 21 20 22 24 23 22 23 23 23 24 25 24 23 22 22 23 24 25 26 28 31 32 32 31 30 31 32 32 32 33 35 37 37 36 31 23 22 24 27 31 37 43 49 54 59 61 59 57 56 56 55 53 51 49 47 45 44 43 41 39 38 38 39 39 40 41 41
216 204 192 183 175 178 176 87 42 36 33 29 24 21 20 21 20 20 19 17 16 16 17 16 16 16 17 18 20 20 20 19 20 21 22 22 22 24 25 27 28 28 28 29 32 32 30 29 31 33 33 30 26 24 25 27 28 31 39 48 52 56 61 64 62 59 58 57 57 56 53 50 47 45 43 41 39 38 38 38 39 40 40 40 40
242 229 214 205 197 196 204 219 240 306 351 355 3 5 7 10 12 14 14 13 12 11 11 11 9 9 10 12 14 15 16 16 17 18 19 20 20 20 22 24 27 28 29 31 33 34 32 29 28 29 30 29 28 29 30 31 32 34 42 50 55 59 62 65 65 62 59 58 57 56 54 51 48 46 44 42 40 37 36 36 37 39 40 40 40
252 252 244 231 220 213 214 225 239 248 267 290 317 333 345 353 359 4 5 6 6 5 5 5 4 4 5 7 9 11 12 13 14 15 17 18 19 19 21 24 27 29 31 33 35 36 36 33 31 33 36 37 37 37 36 36 36 38 45 54 59 61 62 65 66 64 61 58 56 56 54 51 48 46 46 45 43 39 36 34 36 39 41 41 41
246 255 260 256 247 238 233 232 242 251 259 268 283 300 316 330 342 348 351 355 357 358 358 359 358 359 1 3 4 7 10 12 12 14 16 18 19 20 23 26 28 31 33 34 35 37 38 37 38 41 45 48 48 47 46 44 42 42 49 58 62 63 63 64 65 65 63 59 57 56 54 51 49 46 45 45 44 41 39 37 37 40 43 44 44
241 248 256 261 263 262 258 253 254 259 264 269 275 284 296 307 321 330 335 339 344 347 351 352 351 354 356 358 360 4 8 11 12 13 16 18 19 22 25 29 31 32 33 33 35 37 39 40 41 45 49 52 52 53 53 52 51 51 55 60 64 65 64 63 64 65 63 60 59 57 55 53 50 47 46 46 46 46 46 46 45 47 50 52 55
242 245 250 255 262 267 269 271 273 274 276 278 279 281 286 294 304 313 320 324 329 335 341 344 345 347 351 353 355 0 6 10 11 13 17 19 20 24 27 30 32 33 33 33 34 37 40 41 43 46 50 53 54 55 57 57 57 58 61 63 65 66 65 64 63 63 62 61 60 59 58 56 54 53 53 54 55 57 59 60 60 61 64 68 72
245 247 249 253 258 262 266 272 279 285 288 287 287 286 286 289 294 301 308 313 318 323 330 336 338 341 346 349 351 356 3 8 11 13 17 19 21 25 29 31 32 34 34 33 34 37 38 42 46 49 52 57 59 61 62 60 60 62 65 67 67 66 65 64 63 62 62 61 61 61 62 64 64 65 67 69 72 74 75 76 77 78 79 81 83
247 248 250 253 256 258 261 267 274 282 288 290 292 292 290 289 290 294 300 305 310 315 321 328 332 335 342 345 347 352 0 6 10 13 18 20 22 26 30 32 33 35 35 34 37 38 38 42 47 51 55 60 64 67 68 67 65 66 68 70 70 69 68 65 64 65 66 66 67 70 74 79 82 84 85 87 88 88 88 89 89 89 89 89 91
248 249 249 250 253 256 258 262 267 273 278 283 286 289 291 290 288 289 293 299 306 310 315 322 326 330 337 342 343 347 355 3 7 12 18 20 22 25 30 33 35 37 38 39 42 42 41 44 47 50 56 61 66 70 73 73 72 71 71 71 71 71 70 68 67 69 74 77 82 87 92 95 96 97 97 97 97 96 96 95 94 94 94 94 95
251 250 250 249 250 252 255 258 262 265 269 273 275 277 281 284 285 285 287 293 299 304 310 315 319 324 331 336 339 342 348 357 3 8 16 21 22 23 27 32 37 40 42 45 47 47 48 51 52 53 57 62 66 72 76 78 78 76 74 72 72 72 73 74 76 80 88 94 100 104 105 106 106 105 104 103 103 102 100 98 96 95 95 94 94
257 254 252 251 250 251 253 256 258 261 264 266 267 268 269 273 276 278 281 285 291 297 304 310 313 317 323 330 332 334 339 348 356 3 13 22 24 23 25 29 35 42 47 49 52 54 57 60 62 63 67 70 71 75 79 81 82 81 79 77 77 79 82 85 90 96 102 107 110 111 112 112 111 110 109 108 107 105 103 100 98 96 94 92 91
260 258 256 255 254 255 256 258 260 261 263 264 265 266 266 266 269 271 274 278 282 289 296 304 307 310 316 321 323 326 330 337 346 354 8 23 27 24 25 28 33 40 47 52 55 58 63 69 73 75 80 84 83 83 86 86 87 87 87 87 88 90 94 97 101 106 111 113 115 116 115 115 114 113 112 111 109 106 103 101 98 96 94 92 90
255 257 258 256 256 257 258 259 262 263 264 266 266 267 267 267 267 267 269 272 275 281 289 297 303 306 309 313 315 317 321 325 333 343 358 17 27 26 25 29 35 41 48 53 56 58 65 74 80 84 91 94 92 91 92 93 94 96 98 100 101 103 105 108 110 114 117 120 120 120 120 119 118 116 114 111 109 105 102 99 96 94 92 90 88
254 256 258 258 257 256 256 259 261 261 261 261 263 265 267 267 267 266 267 269 273 277 282 291 299 302 305 306 308 309 310 313 319 328 344 4 21 26 26 27 34 41 49 56 59 58 62 72 79 82 88 92 93 95 96 98 101 104 108 111 113 114 115 117 119 121 123 125 126 126 125 124 122 120 116 112 108 104 100 96 93 90 87 85 82
254 255 258 260 259 258 258 260 261 261 259 258 257 258 260 263 263 264 265 268 272 276 281 288 295 300 301 301 301 301 302 302 304 312 326 343 5 22 25 24 27 34 44 56 63 60 58 61 67 71 75 82 89 96 100 104 109 113 116 119 120 122 123 125 126 127 129 130 130 130 130 129 127 125 121 116 110 105 100 95 91 86 81 77 73
251 252 256 259 258 258 260 261 262 262 261 259 257 255 256 257 259 261 262 265 269 275 281 287 291 294 296 295 293 292 292 292 293 299 307 316 332 352 348 350 360 4 20 51 68 71 64 60 62 68 76 81 89 100 108 112 117 122 125 126 127 128 130 132 133 134 135 136 136 136 136 135 133 132 128 123 117 109 101 95 88 80 72 65 59
250 251 253 254 254 255 257 258 260 261 262 261 260 259 258 257 257 259 261 263 267 272 278 283 286 288 288 286 285 282 280 280 282 287 290 292 290 277 256 249 256 263 267 272 89 89 87 79 73 78 88 94 96 105 116 122 126 130 135 135 135 136 137 140 141 141 142 143 143 143 143 142 141 140 138 133 128 119 106 95 83 71 59 48 40
246 248 249 251 253 255 255 255 257 260 262 264 266 266 264 261 259 259 260 263 266 269 272 277 280 282 283 281 278 273 269 268 271 275 277 275 264 245 236 231 234 241 243 243 235 196 147 130 120 117 118 123 123 125 132 137 139 142 144 145 144 144 146 148 150 150 150 151 153 156 157 157 156 156 154 150 145 141 133 112 77 50 37 24 15
242 243 244 247 252 254 255 256 257 259 260 262 267 268 266 261 258 258 259 261 263 264 267 270 273 275 276 276 273 269 265 263 263 265 266 264 249 231 225 222 224 230 231 231 235 231 227 230 228 231 219 193 178 170 164 162 160 159 161 164 166 167 167 170 172 173 173 172 174 178 181 183 184 185 186 186 188 196 211 239 276 307 320 326 332
241 242 243 244 247 251 254 255 256 258 258 257 259 259 258 256 256 255 256 259 260 262 263 264 267 269 269 269 269 267 263 260 258 258 259 257 243 224 218 218 219 223 223 218 220 226 232 238 236 234 239 236 226 217 210 204 202 200 200 204 208 209 206 205 212 220 221 217 215 220 227 231 234 236 238 240 243 251 263 273 283 292 298 305 312
242 243 244 245 245 246 249 252 255 258 258 255 252 252 253 254 257 259 260 262 264 267 269 267 267 268 267 266 265 265 262 257 255 255 256 254 242 222 217 218 217 221 222 216 214 218 226 234 236 236 238 238 237 235 231 225 224 231 237 240 240 243 244 243 244 251 255 253 252 255 261 266 267 265 264 266 268 267 269 274 280 288 296 301 306
Height
10996 10995 10994 10994 10993 10992 10991 10989 10987 10985 10984 10983 10982 10980 10979 10978 10977 10976 10974 10972 10970 10968 10967 10966 10965 10963 10962 10960 10959 10958 10957 10957 10957 10957 10957 10958 10959 10960 10961 10962 10963 10964 10965 10966 10966 10966 10967 10967 10967 10967 10968 10968 10968 10968 10967 10967 10967 10967 10966 10965 10964 10964 10963 10962 10961 10960 10958 10957 10956 10954 10953 10951 10950 10948 10946 10944 10941 10939 10938 10936 10934 10931 10929 10927 10924
10998 10996 10996 10995 10995 10994 10993 10991 10989 10988 10987 10985 10984 10983 10981 10980 10979 10978 10976 10974 10973 10972 10971 10970 10968 10966 10965 10963 10961 10960 10959 10958 10958 10958 10958 10959 10960 10961 10962 10963 10964 10965 10966 10967 10967 10967 10968 10968 10968 10969 10969 10969 10969 10969 10968 10968 10968 10968 10967 10966 10965 10964 10964 10963 10962 10960 10959 10958 10956 10955 10953 10951 10950 10948 10946 10944 10941 10939 10938 10936 10934 10932 10929 10927 10924
11000 10998 10997 10997 10997 10996 10995 10993 10992 10990 10989 10988 10987 10985 10984 10983 10982 10980 10978 10977 10977 10976 10974 10973 10971 10969 10967 10965 10964 10962 10961 10960 10959 10959 10959 10960 10960 10961 10963 10964 10965 10966 10967 10968 10968 10969 10969 10969 10970 10970 10970 10970 10970 10970 10970 10969 10969 10969 10968 10967 10966 10966 10965 10964 10962 10961 10960 10958 10957 10955 10953 10952 10950 10948 10946 10944 10942 10940 10938 10936 10935 10932 10930 10927 10924
11002 11001 11000 10999 10999 10999 10997 10995 10994 10993 10992 10991 10990 10988 10987 10985 10984 10983 10981 10981 10980 10979 10978 10976 10974 10973 10971 10969 10967 10965 10963 10962 10961 10961 10960 10961 10961 10962 10963 10965 10966 10967 10968 10969 10969 10970 10970 10971 10971 10971 10971 10971 10971 10971 10971 10971 10970 10970 10969 10968 10967 10966 10965 10964 10963 10962 10960 10959 10957 10955 10954 10952 10950 10948 10946 10944 10942 10941 10939 10937 10935 10933 10930 10928 10924
11005 11003 11002 11001 11001 11001 10999 10997 10996 10995 10995 10994 10993 10991 10990 10988 10987 10986 10985 10984 10983 10982 10981 10979 10977 10976 10974 10972 10971 10969 10967 10965 10964 10963 10963 10962 10963 10964 10965 10966 10967 10968 10969 10970 10971 10971 10972 10972 10973 10973 10973 10973 10973 10973 10972 10972 10971 10971 10970 10969 10968 10967 10966 10965 10964 10963 10961 10960 10958 10956 10954 10953 10951 10949 10947 10945 10943 10941 10940 10938 10936 10934 10931 10928 10924
11007 11006 11004 11004 11003 11002 11001 10999 10999 10998 10998 10997 10996 10994 10993 10991 10990 10990 10988 10987 10986 10985 10984 10982 10981 10979 10977 10976 10974 10972 10971 10969 10968 10967 10966 10965 10965 10966 10967 10968 10969 10970 10971 10972 10972 10973 10973 10974 10974 10974 10974 10974 10974 10974 10974 10973 10973 10972 10971 10970 10969 10968 10967 10966 10965 10964 10962 10960 10958 10957 10955 10953 10952 10950 10947 10945 10944 10942 10941 10939 10937 10935 10932 10929 10925
11011 11009 11008 11007 11006 11004 11003 11002 11001 11001 11000 11000 10999 10997 10996 10995 10994 10993 10992 10990 10989 10988 10986 10985 10984 10982 10980 10979 10977 10976 10975 10973 10972 10971 10970 10969 10969 10969 10969 10970 10971 10972 10973 10974 10974 10975 10975 10975 10975 10976 10976 10976 10976 10975 10975 10975 10974 10973 10972 10972 10971 10970 10969 10967 10966 10964 10963 10961 10959 10957 10955 10954 10952 10950 10948 10946 10944 10943 10941 10940 10938 10936 10933 10929 10925
11013 11012 11011 11009 11008 11007 11005 11004 11004 11004 11003 11003 11002 11001 11000 10998 10997 10996 10994 10993 10992 10990 10989 10988 10986 10985 10984 10982 10981 10979 10978 10977 10976 10975 10974 10973 10973 10973 10973 10973 10974 10975 10975 10976 10976 10977 10977 10977 10978 10978 10978 10978 10977 10977 10977 10976 10976 10975 10974 10973 10972 10971 10970 10968 10967 10965 10963 10961 10959 10958 10956 10954 10953 10951 10949 10947 10945 10943 10942 10940 10939 10936 10933 10930 10925
11014 11013 11012 11011 11010 11009 11008 11007 11007 11006 11006 11006 11005 11004 11003 11001 11000 10998 10997 10995 10994 10992 10991 10990 10989 10988 10987 10986 10984 10983 10982 10980 10979 10978 10978 10977 10977 10977 10976 10977 10977 10978 10978 10979 10979 10979 10979 10980 10980 10980 10980 10980 10979 10979 10979 10978 10977 10976 10975 10974 10973 10972 10971 10969 10968 10966 10964 10962 10960 10959 10957 10955 10953 10952 10950 10948 10946 10944 10942 10941 10939 10937 10934 10930 10926
11016 11015 11015 11013 11012 11011 11011 11010 11009 11009 11008 11008 11007 11007 11006 11004 11002 11000 10999 10997 10995 10994 10994 10993 10992 10991 10990 10989 10988 10986 10985 10984 10983 10982 10982 10981 10981 10981 10980 10980 10980 10981 10981 10982 10982 10982 10982 10982 10983 10982 10982 10982 10982 10981 10980 10979 10978 10977 10977 10976 10975 10973 10972 10970 10969 10967 10965 10963 10961 10960 10958 10956 10954 10953 10951 10949 10947 10945 10943 10941 10939 10937 10934 10930 10926
11019 11018 11017 11016 11015 11014 11013 11013 11012 11011 11011 11011 11010 11009 11008 11006 11004 11003 11001 10999 10998 10997 10997 10996 10995 10994 10993 10992 10991 10990 10989 10988 10987 10986 10986 10985 10985 10984 10984 10983 10984 10984 10984 10985 10985 10985 10984 10985 10985 10985 10985 10984 10984 10983 10982 10981 10980 10979 10978 10977 10976 10975 10973 10972 10970 10968 10966 10964 10962 10961 10959 10957 10955 10953 10952 10950 10948 10945 10943 10941 10939 10937 10934 10930 10926
11022 11020 11020 11019 11018 11017 11016 11015 11015 11014 11014 11013 11012 11011 11010 11009 11007 11006 11004 11003 11002 11001 11000 10999 10998 10997 10996 10995 10994 10993 10992 10991 10991 10990 10990 10989 10988 10988 10988 10987 10987 10987 10988 10988 10987 10987 10987 10987 10987 10987 10987 10986 10985 10984 10983 10982 10981 10980 10980 10979 10977 10976 10975 10973 10971 10969 10967 10965 10963 10962 10960 10958 10956 10954 10952 10951 10948 10946 10943 10941 10939 10937 10934 10931 10927
11023 11022 11022 11021 11020 11019 11018 11018 11017 11016 11016 11015 11014 11013 11012 11011 11010 11009 11008 11007 11006 11005 11003 11002 11001 11000 11000 10999 10998 10997 10996 10995 10994 10994 10993 10993 10992 10992 10991 10991 10990 10990 10990 10990 10989 10989 10990 10989 10989 10989 10989 10987 10987 10986 10985 10984 10983 10982 10981 10980 10979 10977 10976 10974 10972 10970 10968 10966 10965 10963 10961 10959 10956 10955 10953 10951 10949 10946 10944 10942 10940 10938 10935 10932 10928
11025 11024 11023 11022 11022 11021 11021 11020 11019 11018 11018 11017 11016 11015 11015 11014 11013 11012 11012 11010 11009 11008 11007 11005 11005 11004 11003 11002 11001 11000 10999 10999 10998 10997 10996 10996 10996 10995 10995 10994 10993 10993 10993 10993 10992 10992 10992 10992 10991 10991 10990 10989 10988 10988 10987 10986 10985 10984 10982 10981 10980 10978 10977 10975 10973 10971 10969 10967 10966 10964 10961 10959 10957 10955 10954 10952 10950 10947 10944 10942 10941 10939 10936 10932 10928
11027 11026 11025 11024 11024 11023 11023 11022 11021 11021 11020 11019 11018 11017 11017 11016 11016 11015 11014 11013 11012 11011 11010 11009 11008 11007 11006 11005 11004 11004 11003 11002 11001 11000 10999 10999 10999 10998 10998 10997 10996 10996 10996 10995 10995 10994 10994 10994 10993 10993 10992 10991 10990 10990 10989 10988 10986 10985 10983 10982 10981 10979 10978 10976 10974 10972 10970 10968 10967 10965 10962 10960 10958 10956 10954 10953 10950 10948 10945 10943 10942 10940 10937 10933 10930
11028 11028 11027 11026 11026 11025 11025 11024 11024 11023 11022 11021 11020 11020 11019 11019 11018 11017 11016 11015 11014 11013 11012 11011 11011 11010 11009 11008 11007 11006 11006 11005 11004 11003 11002 11002 11001 11001 11000 11000 10999 10998 10998 10998 10997 10996 10996 10996 10995 10994 10993 10993 10992 10992 10990 10989 10988 10986 10985 10983 10982 10980 10979 10977 10975 10973 10971 10970 10968 10966 10964 10962 10959 10957 10955 10953 10951 10949 10947 10945 10943 10941 10938 10935 10931
11030 11029 11029 11028 11028 11027 11027 11026 11026 11025 11024 11023 11022 11022 11021 11021 11020 11020 11018 11017 11016 11015 11015 11014 11013 11012 11011 11010 11009 11009 11008 11007 11006 11006 11005 11004 11004 11003 11002 11002 11001 11001 11000 11000 10999 10999 10998 10997 10997 10996 10995 10995 10994 10993 10992 10991 10989 10988 10986 10984 10983 10981 10980 10978 10976 10974 10973 10971 10969 10967 10965 10963 10960 10958 10956 10954 10952 10950 10948 10946 10944 10942 10939 10936 10932
11031 11031 11031 11030 11030 11029 11029 11028 11028 11027 11026 11025 11025 11024 11023 11023 11022 11021 11020 11019 11018 11018 11017 11016 11016 11014 11013 11012 11012 11011 11010 11010 11009 11008 11007 11006 11006 11005 11004 11004 11004 11004 11003 11002 11002 11001 11000 10999 10998 10997 10997 10996 10995 10994 10993 10992 10990 10989 10987 10986 10984 10982 10981 10979 10977 10976 10974 10972 10970 10968 10966 10964 10962 10959 10957 10955 10953 10951 10949 10947 10945 10943 10940 10937 10934
11033 11033 11032 11032 11032 11031 11031 11030 11029 11029 11028 11027 11027 11026 11025 11025 11024 11023 11022 11021 11020 11020 11019 11018 11018 11016 11015 11014 11014 11013 11012 11012 11011 11010 11009 11009 11008 11007 11007 11006 11006 11006 11005 11004 11003 11002 11001 11000 11000 10999 10998 10997 10997 10996 10994 10993 10992 10990 10989 10987 10985 10984 10982 10980 10979 10977 10975 10973 10971 10969 10967 10965 10963 10961 10959 10957 10955 10953 10951 10949 10947 10944 10942 10939 10936
11034 11034 11034 11033 11033 11033 11032 11032 11031 11031 11030 11029 11029 11028 11027 11026 11026 11025 11024 11023 11022 11021 11021 11020 11019 11018 11017 11016 11015 11015 11014 11013 11013 11012 11011 11011 11010 11009 11009 11008 11008 11007 11007 11006 11005 11004 11003 11002 11001 11000 10999 10999 10998 10997 10995 10994 10993 10991 10990 10988 10987 10985 10983 10982 10980 10978 10976 10975 10973 10971 10969 10967 10965 10962 10960 10959 10957 10955 10953 10950 10948 10946 10943 10940 10937
11035 11035 11034 11034 11034 11034 11034 11033 11033 11032 11032 11031 11030 11030 11029 11028 11027 11026 11025 11025 11024 11023 11022 11021 11021 11020 11019 11018 11017 11016 11015 11015 11014 11014 11013 11012 11012 11011 11010 11010 11009 11008 11008 11007 11006 11005 11004 11003 11002 11002 11001 11000 10999 10998 10996 10995 10994 10992 10991 10989 10988 10986 10985 10983 10981 10979 10978 10976 10974 10972 10970 10969 10966 10964 10962 10960 10958 10957 10954 10952 10950 10947 10944 10942 10939
11035 11035 11035 11035 11035 11035 11035 11034 11034 11034 11033 11033 11032 11031 11031 11030 11029 11028 11027 11026 11025 11025 11024 11023 11022 11021 11020 11019 11018 11018 11017 11016 11016 11015 11014 11014 11013 11012 11012 11011 11010 11010 11009 11008 11007 11006 11006 11005 11004 11003 11002 11002 11000 10999 10998 10996 10995 10994 10992 10991 10989 10987 10986 10984 10983 10981 10979 10977 10975 10973 10972 10970 10968 10966 10964 10962 10960 10958 10956 10954 10951 10949 10946 10944 10941
11036 11036 11036 11036 11036 11036 11036 11035 11035 11035 11035 11034 11033 11033 11032 11031 11030 11029 11029 11028 11027 11026 11025 11024 11023 11022 11022 11021 11020 11019 11018 11018 11017 11016 11016 11015 11014 11014 11013 11013 11012 11011 11010 11009 11009 11008 11007 11007 11006 11005 11004 11003 11002 11001 10999 10998 10996 10995 10993 10992 10990 10989 10987 10985 10984 10983 10981 10979 10976 10975 10973 10972 10970 10968 10965 10964 10962 10960 10958 10955 10953 10951 10949 10946 10943
11037 11037 11037 11037 11036 11036 11036 11036 11036 11036 11036 11035 11035 11034 11033 11032 11031 11030 11030 11029 11028 11028 11027 11026 11025 11024 11023 11022 11021 11021 11020 11019 11019 11018 11017 11017 11016 11015 11014 11014 11013 11012 11011 11010 11010 11009 11009 11008 11007 11006 11005 11004 11003 11002 11001 10999 10998 10996 10994 10993 10991 10990 10988 10987 10985 10984 10982 10980 10978 10976 10975 10973 10972 10969 10967 10966 10964 10962 10959 10957 10955 10953 10951 10948 10946
11037 11037 11037 11037 11037 11037 11037 11037 11037 11037 11036 11036 11036 11035 11034 11033 11032 11031 11031 11030 11030 11029 11028 11027 11026 11025 11024 11024 11023 11022 11021 11021 11020 11020 11019 11018 11017 11016 11016 11015 11014 11013 11012 11011 11011 11010 11010 11009 11008 11007 11006 11005 11004 11003 11002 11000 10999 10997 10996 10994 10993 10991 10990 10988 10987 10986 10984 10982 10980 10978 10976 10975 10973 10971 10969 10968 10966 10964 10962 10960 10958 10956 10953 10951 10948
11037 11037 11038 11038 11038 11038 11038 11037 11037 11037 11037 11037 11036 11035 11035 11034 11033 11032 11032 11031 11030 11030 11029 11028 11027 11027 11026 11025 11024 11023 11022 11022 11021 11021 11020 11019 11018 11018 11017 11016 11015 11014 11013 11012 11012 11011 11010 11010 11009 11008 11007 11006 11005 11004 11003 11001 11000 10998 10997 10995 10994 10992 10991 10989 10988 10987 10985 10984 10982 10980 10978 10977 10975 10973 10972 10970 10968 10966 10964 10962 10960 10958 10955 10953 10950
11037 11038 11038 11038 11038 11038 11038 11038 11037 11037 11037 11037 11037 11036 11036 11035 11034 11033 11032 11032 11031 11030 11030 11029 11028 11027 11027 11026 11025 11025 11024 11023 11023 11022 11021 11021 11020 11019 11018 11017 11016 11015 11014 11014 11013 11012 11011 11010 11009 11009 11008 11007 11006 11005 11004 11002 11001 10999 10998 10996 10995 10993 10992 10991 10990 10989 10987 10985 10984 10982 10980 10979 10977 10975 10974 10972 10970 10968 10966 10964 10962 10960 10957 10955 10953
11038 11038 11038 11038 11038 11038 11038 11038 11038 11038 11037 11037 11037 11037 11036 11035 11035 11034 11033 11032 11032 11031 11030 11030 11028 11028 11027 11027 11026 11026 11025 11024 11024 11023 11022 11022 11021 11020 11019 11018 11017 11016 11016 11015 11014 11013 11012 11011 11010 11010 11009 11008 11007 11006 11004 11003 11001 11000 10999 10997 10996 10995 10993 10992 10991 10990 10989 10987 10986 10984 10982 10981 10979 10977 10976 10974 10973 10971 10969 10967 10965 10962 10960 10958 10955
11038 11038 11038 11038 11039 11039 11039 11038 11038 11038 11038 11037 11037 11037 11037 11036 11035 11035 11034 11033 11032 11031 11031 11030 11029 11028 11028 11027 11027 11026 11025 11025 11025 11024 11023 11022 11022 11021 11020 11019 11018 11018 11017 11016 11015 11014 11013 11013 11012 11011 11010 11009 11008 11006 11005 11003 11002 11001 11000 10999 10997 10996 10995 10994 10993 10992 10990 10989 10988 10986 10984 10983 10981 10979 10978 10977 10975 10973 10971 10969 10967 10965 10963 10960 10958
11038 11038 11039 11039 11039 11039 11039 11039 11038 11038 11038 11038 11038 11037 11037 11036 11036 11035 11035 11034 11033 11032 11032 11031 11030 11029 11028 11028 11027 11026 11026 11025 11025 11024 11024 11023 11022 11021 11021 11020 11019 11018 11018 11017 11016 11015 11014 11013 11012 11011 11010 11009 11008 11007 11006 11004 11003 11002 11001 11000 10999 10997 10996 10995 10994 10993 10992 10991 10990 10988 10987 10985 10983 10982 10980 10979 10977 10976 10974 10972 10969 10967 10965 10963 10961
11038 11038 11038 11039 11039 11039 11039 11039 11039 11039 11038 11038 11038 11038 11037 11037 11036 11036 11035 11034 11034 11033 11032 11031 11030 11029 11029 11028 11028 11027 11026 11026 11025 11025 11024 11023 11022 11022 11021 11020 11020 11019 11018 11017 11016 11015 11014 11014 11013 11012 11011 11010 11009 11008 11007 11005 11004 11002 11002 11001 11000 10999 10997 10996 10996 10995 10994 10993 10992 10990 10989 10987 10986 10984 10983 10981 10980 10978 10976 10974 10972 10970 10968 10965 10963
11038 11038 11038 11038 11039 11039 11039 11039 11039 11039 11038 11038 11038 11038 11038 11037 11037 11036 11036 11035 11034 11034 11033 11032 11031 11030 11030 11029 11028 11027 11027 11026 11025 11025 11024 11023 11023 11022 11021 11021 11020 11019 11018 11018 11017 11016 11015 11014 11013 11012 11011 11011 11010 11009 11007 11006 11005 11003 11002 11002 11001 11000 10999 10998 10997 10996 10996 10995 10993 10992 10991 10989 10988 10986 10985 10984 10982 10981 10979 10977 10974 10972 10970 10968 10966
11037 11038 11038 11038 11039 11039 11039 11039 11039 11039 11039 11038 11038 11038 11038 11037 11037 11036 11036 11035 11035 11034 11033 11033 11032 11031 11030 11030 11029 11028 11027 11027 11026 11025 11024 11024 11023 11022 11021 11021 11020 11019 11019 11018 11017 11016 11015 11014 11014 11013 11012 11011 11011 11010 11008 11007 11006 11004 11003 11003 11002 11001 11000 10999 10998 10998 10997 10996 10995 10994 10993 10991 10990 10988 10987 10986 10984 10983 10981 10979 10977 10974 10972 10970 10969
11036 11037 11038 11038 11038 11039 11039 11039 11039 11039 11039 11039 11038 11038 11038 11037 11037 11036 11036 11035 11035 11034 11034 11033 11032 11032 11031 11030 11030 11029 11028 11027 11026 11026 11025 11024 11023 11023 11022 11021 11020 11020 11019 11018 11018 11017 11016 11015 11014 11014 11013 11012 11011 11011 11009 11008 11007 11005 11004 11003 11003 11002 11001 11000 11000 10999 10999 10998 10997 10996 10994 10993 10992 10991 10989 10988 10987 10985 10983 10981 10979 10977 10975 10973 10971
11034 11036 11037 11037 11038 11038 11039 11039 11039 11039 11039 11039 11039 11038 11038 11037 11037 11036 11036 11035 11035 11034 11034 11033 11032 11032 11031 11031 11030 11029 11029 11028 11027 11026 11026 11025 11024 11023 11022 11022 11021 11020 11019 11019 11018 11018 11017 11016 11015 11015 11014 11013 11012 11011 11010 11009 11008 11007 11005 11004 11004 11003 11002 11002 11001 11000 11000 10999 10998 10997 10996 10995 10994 10993 10992 10990 10989 10988 10986 10984 10982 10980 10978 10976 10974
11032 11034 11035 11036 11037 11038 11038 11038 11039 11039 11039 11039 11039 11038 11038 11037 11037 11036 11036 11035 11035 11034 11034 11033 11032 11032 11032 11031 11030 11030 11029 11028 11028 11027 11027 11026 11025 11024 11023 11022 11021 11020 11020 11019 11018 11018 11018 11017 11016 11016 11015 11014 11013 11012 11011 11010 11009 11008 11006 11005 11005 11004 11004 11003 11003 11002 11001 11000 10999 10999 10998 10997 10996 10995 10994 10993 10991 10990 10988 10986 10985 10983 10982 10980 10978
11030 11032 11033 11035 11036 11037 11037 11037 11038 11038 11039 11039 11038 11038 11038 11037 11037 11036 11036 11035 11035 11034 11034 11033 11032 11032 11032 11031 11031 11030 11030 11029 11028 11028 11027 11027 11026 11025 11024 11023 11022 11021 11020 11020 11019 11018 11018 11017 11017 11016 11016 11015 11014 11014 11012 11011 11010 11008 11007 11007 11006 11006 11005 11004 11004 11003 11002 11002 11001 11000 11000 10999 10998 10997 10996 10995 10994 10993 10991 10989 10988 10986 10985 10984 10982
11028 11030 11031 11033 11034 11035 11036 11036 11037 11037 11037 11038 11038 11037 11037 11037 11036 11036 11035 11035 11035 11034 11034 11033 11032 11032 11032 11032 11031 11031 11030 11030 11029 11029 11028 11027 11026 11026 11025 11024 11023 11022 11021 11020 11020 11019 11019 11018 11017 11017 11016 11016 11015 11014 11013 11012 11011 11009 11008 11008 11007 11007 11006 11006 11005 11005 11004 11003 11003 11002 11002 11001 11000 11000 10999 10998 10997 10995 10994 10993 10991 10990 10988 10987 10986
11025 11027 11028 11030 11031 11032 11033 11034 11034 11035 11035 11036 11036 11036 11036 11036 11036 11035 11035 11034 11034 11034 11034 11033 11033 11032 11032 11032 11032 11031 11031 11030 11030 11029 11029 11028 11027 11027 11026 11025 11024 11023 11022 11021 11021 11020 11019 11019 11018 11017 11017 11016 11015 11015 11014 11013 11012 11011 11010 11009 11009 11008 11008 11007 11006 11006 11006 11006 11005 11005 11004 11003 11003 11002 11001 11000 10999 10998 10997 10996 10995 10993 10992 10991 10990
11021 11023 11025 11026 11027 11028 11029 11030 11031 11032 11033 11033 11034 11034 11034 11034 11034 11034 11033 11033 11033 11034 11034 11033 11032 11032 11032 11032 11032 11031 11031 11031 11030 11030 11029 11029 11028 11027 11026 11026 11025 11024 11023 11022 11022 11021 11020 11019 11019 11018 11017 11017 11016 11015 11014 11014 11013 11012 11011 11011 11010 11010 11009 11009 11008 11008 11008 11008 11008 11007 11006 11006 11005 11004 11003 11002 11001 11000 10999 10999 10998 10997 10996 10995 10994
11018 11019 11020 11022 11023 11024 11025 11026 11028 11029 11030 11031 11031 11032 11032 11032 11032 11032 11032 11032 11032 11033 11033 11033 11032 11032 11032 11032 11032 11032 11031 11031 11031 11030 11030 11030 11029 11028 11027 11026 11025 11025 11024 11023 11022 11021 11021 11020 11019 11019 11018 11017 11017 11016 11015 11014 11014 11013 11013 11012 11012 11011 11011 11011 11011 11011 11010 11010 11010 11009 11008 11007 11006 11006 11005 11004 11003 11002 11002 11001 11000 11000 10999 10998 10997
11016 11017 11018 11019 11020 11022 11023 11024 11025 11027 11028 11029 11030 11030 11030 11030 11030 11030 11031 11031 11031 11031 11032 11032 11032 11031 11032 11032 11032 11032 11032 11031 11031 11030 11030 11030 11030 11029 11028 11027 11026 11025 11024 11023 11023 11022 11021 11020 11020 11019 11018 11018 11017 11016 11016 11015 11015 11014 11014 11014 11013 11013 11013 11012 11012 11012 11012 11012 11011 11011 11010 11009 11009 11008 11007 11006 11005 11005 11004 11003 11003 11002 11001 11000 10999
11014 11014 11015 11016 11018 11020 11021 11022 11023 11025 11026 11027 11028 11029 11029 11029 11029 11029 11029 11029 11029 11030 11030 11031 11031 11031 11031 11031 11032 11032 11032 11031 11031 11030 11030 11030 11030 11029 11028 11027 11026 11025 11024 11024 11023 11022 11022 11021 11020 11019 11019 11018 11017 11017 11016 11016 11016 11015 11015 11015 11015 11015 11014 11014 11014 11014 11013 11013 11013 11012 11012 11011 11010 11010 11009 11008 11008 11007 11006 11005 11005 11004 11003 11002 11001
11012 11013 11013 11014 11015 11016 11018 11019 11020 11021 11022 11024 11025 11026 11027 11028 11028 11028 11027 11027 11028 11028 11028 11029 11030 11030 11030 11031 11031 11031 11031 11031 11031 11030 11030 11030 11030 11029 11029 11027 11026 11025 11025 11024 11024 11023 11022 11021 11020 11019 11019 11018 11018 11017 11017 11017 11017 11017 11017 11017 11016 11016 11016 11016 11015 11015 11015 11014 11014 11014 11013 11012 11012 11011 11011 11010 11009 11008 11008 11007 11006 11005 11005 11004 11003
11010 11011 11011 11011 11012 11013 11014 11016 11017 11018 11018 11019 11021 11022 11023 11024 11025 11026 11026 11026 11026 11026 11027 11028 11028 11029 11029 11030 11030 11031 11031 11031 11030 11030 11030 11030 11030 11029 11029 11028 11027 11026 11025 11024 11024 11023 11022 11022 11021 11020 11019 11019 11019 11018 11018 11018 11018 11018 11018 11018 11018 11017 11017 11017 11017 11016 11016 11016 11015 11015 11015 11014 11013 11013 11012 11011 11011 11010 11009 11008 11008 11007 11006 11005 11004
11006 11007 11008 11009 11010 11011 11012 11013 11014 11015 11016 11017 11018 11018 11020 11021 11022 11023 11023 11024 11024 11025 11025 11026 11027 11028 11028 11029 11029 11030 11030 11030 11030 11030 11029 11029 11029 11029 11029 11028 11027 11026 11025 11025 11024 11023 11023 11022 11021 11021 11020 11020 11020 11019 11019 11019 11019 11019 11019 11019 11019 11019 11018 11018 11018 11018 11017 11017 11017 11016 11016 11015 11015 11014 11014 11013 11012 11011 11011 11010 11009 11008 11008 11007 11006
11002 11003 11004 11006 11008 11008 11010 11010 11011 11012 11013 11015 11016 11016 11017 11019 11019 11020 11020 11021 11022 11023 11024 11025 11025 11026 11027 11027 11028 11028 11028 11029 11029 11029 11029 11028 11028 11028 11028 11028 11027 11026 11026 11025 11024 11023 11023 11022 11022 11021 11021 11020 11020 11020 11020 11020 11020 11020 11020 11020 11020 11020 11019 11019 11019 11019 11019 11018 11018 11017 11017 11016 11016 11015 11015 11014 11013 11013 11012 11011 11010 11009 11009 11008 11007
10999 11000 11001 11003 11005 11006 11007 11007 11008 11009 11011 11013 11014 11015 11016 11017 11017 11017 11018 11018 11019 11020 11021 11022 11023 11024 11025 11025 11026 11026 11027 11027 11027 11027 11027 11027 11027 11027 11027 11027 11027 11026 11025 11024 11024 11023 11022 11022 11021 11021 11020 11020 11020 11020 11020 11020 11020 11020 11021 11020 11020 11020 11020 11020 11020 11019 11019 11019 11019 11018 11018 11017 11017 11016 11016 11015 11014 11014 11013 11012 11011 11010 11009 11008 11007
10996 10997 10998 11000 11002 11003 11004 11005 11005 11007 11009 11011 11013 11014 11014 11014 11014 11014 11015 11015 11016 11017 11018 11019 11020 11021 11022 11023 11023 11024 11025 11026 11026 11026 11025 11025 11025 11025 11025 11025 11025 11025 11024 11024 11023 11022 11022 11021 11021 11020 11020 11019 11019 11019 11020 11020 11020 11021 11021 11021 11021 11021 11021 11020 11020 11020 11019 11019 11019 11018 11018 11017 11017 11016 11016 11015 11015 11014 11013 11012 11011 11010 11010 11009 11008
10991 10993 10994 10996 10998 10999 11001 11001 11002 11004 11006 11009 11010 11008 11008 11009 11010 11011 11012 11012 11013 11014 11015 11016 11017 11017 11019 11020 11020 11021 11022 11024 11024 11024 11024 11024 11023 11024 11024 11023 11023 11023 11023 11022 11022 11021 11021 11020 11019 11019 11019 11018 11018 11019 11019 11019 11020 11020 11020 11020 11020 11020 11020 11020 11020 11019 11019 11019 11018 11018 11017 11017 11016 11016 11015 11015 11014 11014 11013 11012 11011 11010 11009 11008 11007
10987 10988 10989 10991 10993 10995 10996 10997 10999 11001 11003 11004 11002 11000 11001 11004 11007 11009 11010 11011 11011 11011 11012 11014 11014 11015 11015 11016 11017 11018 11019 11021 11022 11022 11022 11022 11022 11022 11022 11021 11021 11021 11021 11021 11020 11020 11019 11019 11018 11018 11017 11017 11017 11017 11017 11018 11018 11018 11019 11019 11019 11019 11019 11019 11019 11018 11018 11018 11017 11017 11016 11015 11015 11015 11014 11014 11014 11013 11012 11011 11010 11009 11008 11008 11007